Location: Oshawa
(43.9000°N, 78.8670°W)
Time: 15:58:58
(UTC-04:00)

Explorer 7 - Visible Passes

Search period start: 31 May 2016 00:00
Search period end: 10 June 2016 00:00
Orbit: 487 x 687 km, 50.3° (Epoch: 30 May)

Date Brightness Start Highest point End Pass type
(mag) Time Alt. Az. Time Alt. Az. Time Alt. Az.
31 May 8.7 00:20:54 19° ENE 00:20:54 19° ENE 00:22:14 10° ENE visible
31 May 7.8 01:57:16 27° WNW 01:59:01 44° NNW 02:03:02 10° ENE visible
31 May 8.5 03:36:31 10° WNW 03:40:18 34° N 03:44:18 10° ENE visible
01 Jun 7.5 00:26:03 41° ENE 00:26:03 41° ENE 00:28:48 10° ENE visible
01 Jun 8.2 02:02:23 12° WNW 02:05:41 37° N 02:09:35 10° ENE visible
01 Jun 8.4 03:43:07 10° WNW 03:46:59 37° N 03:51:05 10° E visible
02 Jun 6.9 00:30:39 56° WNW 00:31:16 67° NNW 00:35:18 10° ENE visible
02 Jun 8.5 02:08:43 10° WNW 02:12:21 33° N 02:16:12 10° ENE visible
02 Jun 8.1 03:49:39 10° WNW 03:53:37 44° NNE 03:57:51 10° E visible
02 Jun 7.0 22:56:29 35° S 22:57:17 40° SE 23:00:58 10° ENE visible
03 Jun 7.6 00:34:06 10° W 00:37:50 49° NNW 00:41:47 10° ENE visible
03 Jun 8.6 02:15:25 10° WNW 02:19:03 32° N 02:22:53 10° ENE visible
03 Jun 7.6 03:56:08 10° WNW 04:00:13 57° NNE 04:04:34 10° ESE visible
03 Jun 6.5 22:59:56 10° SW 23:03:41 66° SSE 23:07:34 10° ENE visible
04 Jun 8.1 00:40:50 10° W 00:44:28 39° NNW 00:48:17 10° ENE visible
04 Jun 8.5 02:22:02 10° WNW 02:25:44 34° N 02:29:38 10° ENE visible
04 Jun 7.0 04:02:36 10° WNW 04:06:46 79° NNE 04:11:11 10° ESE visible
04 Jun 8.0 21:27:18 10° S 21:29:58 19° SE 21:32:42 10° E visible
04 Jun 6.6 23:06:21 10° WSW 23:10:08 81° NNW 23:14:05 10° ENE visible
05 Jun 8.4 00:47:34 10° WNW 00:51:08 34° N 00:54:51 10° ENE visible
05 Jun 8.2 02:28:36 10° WNW 02:32:23 39° NNE 02:36:24 10° E visible
05 Jun 6.8 04:09:06 10° WNW 04:13:14 72° SSW 04:17:39 10° SE visible
05 Jun 7.3 21:32:54 10° SSW 21:36:15 31° SE 21:39:39 10° ENE visible
05 Jun 7.3 23:12:56 10° WSW 23:16:40 56° NNW 23:20:33 10° ENE visible
06 Jun 8.6 00:54:17 10° WNW 00:57:49 32° N 01:01:30 10° ENE visible
06 Jun 7.7 02:35:06 10° WNW 02:39:00 49° NNE 02:43:09 10° E visible
06 Jun 7.1 04:15:40 10° WNW 04:19:39 46° SW 04:23:53 10° SE visible
06 Jun 6.7 21:38:57 10° SW 21:42:36 51° SE 21:46:20 10° ENE visible
06 Jun 7.9 23:19:38 10° W 23:23:16 42° NNW 23:27:03 10° ENE visible
07 Jun 8.5 01:00:57 10° WNW 01:04:29 32° N 01:08:12 10° ENE visible
07 Jun 7.1 02:41:34 10° WNW 02:45:33 66° NNE 02:49:49 10° ESE visible
07 Jun 7.7 04:22:23 10° WNW 04:26:01 29° SW 04:29:50 10° SSE visible
07 Jun 6.5 21:45:16 10° WSW 21:49:02 83° SSE 21:52:52 10° ENE visible
07 Jun 8.3 23:26:23 10° WNW 23:29:54 35° N 23:33:34 10° ENE visible
08 Jun 8.3 01:07:31 10° WNW 01:11:09 35° N 01:14:58 10° ENE visible
08 Jun 6.7 02:48:02 10° WNW 02:52:04 87° SSW 02:56:22 10° ESE visible
08 Jun 8.3 04:29:25 10° W 04:32:18 18° SW 04:35:18 10° S visible
08 Jun 7.0 21:51:47 10° WSW 21:55:31 66° NNW 21:59:21 10° ENE visible
08 Jun 8.5 23:33:07 10° WNW 23:36:34 31° N 23:40:09 10° ENE visible
09 Jun 7.9 01:14:02 10° WNW 01:17:47 42° NNE 01:21:43 10° E visible
09 Jun 6.8 02:54:33 10° WNW 02:58:31 57° SW 03:01:23 19° SE visible
09 Jun9.104:41:16SSW04:41:16SSW04:36:46WSWvisible
09 Jun 7.7 21:58:26 10° W 22:02:05 47° NNW 22:05:49 10° ENE visible
09 Jun 8.5 23:39:48 10° WNW 23:43:14 31° N 23:46:49 10° ENE visible
